Location: Betra
(48.4113°N, 8.6634°E)
Time: 19:10:43
(UTC+00:00)

Okean 2 - Pass Details

Date: 23 May 2024
Orbit: 540 x 553 km, 82.5° (Epoch: 16 June)

Event Time Altitude Azimuth Distance (km) Brightness Sun altitude
Exits shadow 00:50:28 44° 185° (S) 763 3.5 -18.2°
Maximum altitude 00:51:41 87° 98° (E) 549 3.2 -18.1°
Drops below altitude 10° 00:55:41 10° 10° (N) 1,816 7.2 -17.8°
Sets 00:57:51 0° 10° (N) 2,714 8.4 -17.7°
